Retour au catalogue

PIESAT-2 12

ActifScienceSSO
NORAD 62336·PAYLOAD·🇨🇳 China

Lancé Dec 16, 2024 depuis Taiyuan Satellite Launch Center

Loading…

Prochains Passages (prochaines 24 heures)

TLE

FraisSource: Space-Track

Époque: Sep 14, 2026, 23:28 UTC

1 62336U 24241D   26257.97793527  .00006940  00000-0  37218-3 0  9997
2 62336  97.5304 204.5251 0001702  70.2936 289.8480 15.15282070 96393

Suivez PIESAT-2 12 en temps réel avec AllMySat

Download on the App Store